Location: Red Rock Farm
(35.2100°N, 97.2200°W)
Time: 12:32:13
(UTC-05:00)

ISS - All Passes

Search period start: 17 September 2014 00:00
Search period end: 27 September 2014 00:00
Orbit: 414 x 417 km, 51.6° (Epoch: 17 September)

Date Brightness Start Highest point End Pass type
(mag) Time Alt. Az. Time Alt. Az. Time Alt. Az.
17 Sep - 03:01:19 10° SSE 03:03:22 15° SE 03:05:25 10° E night (unlit)
17 Sep - 04:36:39 10° WSW 04:39:49 41° NW 04:42:59 10° NE visible
17 Sep - 11:07:49 10° NW 11:11:05 51° NE 11:14:19 10° ESE daylight
17 Sep - 12:46:02 10° WSW 12:47:26 12° SW 12:48:50 10° SSW daylight
18 Sep - 03:47:43 10° SW 03:51:03 79° NW 03:54:23 10° NE visible
18 Sep - 05:26:52 10° NW 05:28:14 12° NNW 05:29:35 10° N visible
18 Sep - 10:19:18 10° NNW 10:22:15 29° NE 10:25:12 10° E daylight
18 Sep - 11:56:10 10° WNW 11:58:52 23° SW 12:01:33 10° S daylight
19 Sep - 02:59:05 10° SSW 03:02:19 51° SE 03:05:33 10° ENE night (unlit)
19 Sep - 04:36:55 10° WNW 04:39:14 17° NNW 04:41:33 10° NNE visible
19 Sep - 09:30:54 10° NNW 09:33:20 19° NNE 09:35:45 10° ENE daylight
19 Sep - 11:07:00 10° WNW 11:10:12 44° SW 11:13:22 10° SSE daylight
20 Sep - 02:10:48 10° S 02:13:37 26° SE 02:16:26 10° ENE night (unlit)
20 Sep - 03:47:23 10° W 03:50:15 27° NW 03:53:09 10° NNE visible
20 Sep - 08:42:44 10° N 08:44:18 13° NNE 08:45:51 10° NE daylight
20 Sep - 10:18:06 10° NW 10:21:26 89° NE 10:24:45 10° SE daylight
21 Sep - 01:23:11 10° SSE 01:24:56 14° SE 01:26:41 10° E night (unlit)
21 Sep - 02:58:07 10° WSW 03:01:20 46° NW 03:04:33 10° NE night (unlit)
21 Sep - 09:29:21 10° NW 09:32:34 45° NE 09:35:46 10° ESE daylight
21 Sep - 11:07:10 10° W 11:08:57 14° SW 11:10:44 10° SSW daylight
22 Sep - 02:09:07 10° SW 02:12:26 90° ESE 02:15:46 10° NE night (unlit)
22 Sep - 03:47:58 10° NW 03:49:34 13° NNW 03:51:10 10° N night (unlit)
22 Sep - 08:40:43 10° NNW 08:43:35 26° NE 08:46:27 10° E daylight
22 Sep - 10:17:24 10° WNW 10:20:14 26° SW 10:23:03 10° S daylight
23 Sep - 01:20:24 10° SSW 01:23:35 44° SE 01:26:46 10° ENE night (unlit)
23 Sep - 02:57:59 10° WNW 03:00:26 19° NNW 03:02:53 10° NNE night (unlit)
23 Sep - 07:52:13 10° NNW 07:54:30 17° NNE 07:56:47 10° ENE daylight
23 Sep - 09:28:10 10° WNW 09:31:25 52° SW 09:34:39 10° SSE daylight
24 Sep - 00:32:06 10° S 00:34:45 22° SE 00:37:25 10° ENE night (unlit)
24 Sep - 02:08:22 10° W 02:11:20 29° NW 02:14:19 10° NNE night (unlit)
24 Sep - 07:04:01 10° N 07:05:19 12° NNE 07:06:37 10° NE daylight
24 Sep - 08:39:10 10° NW 08:42:30 77° NE 08:45:49 10° SE daylight
24 Sep - 23:44:39 10° SSE 23:45:57 12° SE 23:47:15 10° ESE night (unlit)
25 Sep - 01:19:02 10° WSW 01:22:17 53° NW 01:25:33 10° NE night (unlit)
25 Sep - 07:50:19 10° NW 07:53:29 40° NE 07:56:38 10° ESE daylight
25 Sep - 09:27:49 10° W 09:29:55 16° SW 09:32:01 10° SSW daylight
26 Sep - 00:29:58 10° SW 00:33:16 78° SE 00:36:36 10° NE night (unlit)
26 Sep - 02:08:30 10° WNW 02:10:20 14° NNW 02:12:10 10° N night (unlit)
26 Sep - 07:01:35 10° NNW 07:04:21 24° NNE 07:07:06 10° E daylight
26 Sep - 08:38:05 10° WNW 08:41:03 30° SW 08:43:59 10° SSE daylight
26 Sep - 23:41:12 10° SSW 23:44:17 37° SE 23:47:24 10° ENE night (unlit)
